Location: An Tulaigh
(53.1928°N, 8.1647°W)
Time: 22:45:47
(UTC+00:00)

Okean O Rocket - Pass Details

Date: 15 May 2026
Orbit: 614 x 633 km, 98.0° (Epoch: 6 June)

Event Time Altitude Azimuth Distance (km) Brightness Sun altitude
Exits shadow 21:29:45 - 176° (S) 2,472 4.2 -8.1°
Reaches altitude 10° 21:30:59 10° 178° (S) 1,971 3.7 -8.2°
Maximum altitude 21:35:12 59° 258° (WSW) 716 2.1 -8.6°
Drops below altitude 10° 21:39:29 10° 339° (NNW) 1,989 5.5 -9.0°
Sets 21:41:43 0° 343° (NNW) 2,901 6.4 -9.3°
